Weather in Novoazovsk

Ukraine / Donetsk Region     47°06′49″N   38°04′58″E
temp.,
°C
wind,
m/s
gust,
m/s
humid.,
%
clouds,
%
prec.,
mm/h
press.,
hPa
HPBL,
m
9 may, sun
sun900:00+15nnw91083100 0.0 1008563
03:00+10nnw121582100 0.3 1011646
06:00+9nnw111478100 0.1 1013868
09:00+9nnw111276100 0.1 10151063
12:00+11nw111160100 0.0 10161377
15:00+14nnw9104684 0.0 10182196
18:00+14nw10104482 0.0 10192279
21:00+13nnw1010545 0.0 10221284
10 may, mon
mon1000:00+11nw810622 0.0 1023867
03:00+10nnw8106774 0.3 1023495
06:00+9nnw810710 0.0 1024443
09:00+11nnw9105699 0.0 10231342
12:00+13nnw91147100 0.0 10222207
15:00+15nw91145100 0.0 10202253
18:00+15nw91248100 0.0 10182317
21:00+13nw91354100 0.1 10171909
11 may, tue
tue1100:00+11wnw111575100 2.9 10141455
03:00+10w131485100 9.6 10111111
06:00+11nw101190100 3.6 1008802
09:00+10nne111289100 4.4 1010883
12:00+10nne998398 0.2 1011857
15:00+11n5672100 0.6 1012909
18:00+10n3375100 0.4 1013603
21:00+11e2374100 0.8 1014343
12 may, wed
wed1200:00+12se87745 1.8 1014833
03:00+11sse11118695 4.1 1014862
06:00+11sse131390100 5.5 1015825
09:00+12sse141578100 8.4 10151076
12:00+13sse121374100 1.8 10161115
15:00+14sse81066100 2.1 1016959
18:00+15se467477 0.0 1016494
21:00+16sse23755 0.0 1015155
13 may, thu
thu1300:00+16e2375100 0.0 1015168
03:00+15e678185 0.0 1015266
06:00+15e898073 0.0 1015332
09:00+15e9107772 0.0 1015349
12:00+17ene8118110 0.0 1014265
15:00+18e71080100 0.0 1013104
18:00+19e71081100 0.0 101396
21:00+19e813855 0.0 1013152